Preview of NWS' New Version of Forecast
This preview is not operational and should not be used for support decisions.

Regional Weather Roundup (RWR)

Issued by National Weather Service (NWS)

                            
000
ASUS46 KSEW 160210
RWRWA 

WASHINGTON REGIONAL WEATHER ROUNDUP
NATIONAL WEATHER SERVICE SEATTLE WA
700 PM PDT MON JUL 15 2019

NOTE:"FAIR" INDICATES FEW OR NO CLOUDS BELOW 12,000 FEET WITH NO 
SIGNIFICANT WEATHER AND/OR OBSTRUCTIONS TO VISIBILITY.

WAZ507-509-555>559-160300-
SEATTLE, TACOMA, EVERETT, AND VICINITY
  
CITY           SKY/WX    TMP DP  RH WIND       PRES   REMARKS
EVERETT        CLOUDY    67  56  67 SW6       30.06S                  
BOEING FIELD   CLOUDY    70  56  61 VRB3      30.04S                  
RENTON         CLOUDY    71  58  63 VRB5      30.04F                  
SEATAC AIRPORT PTSUNNY   70  56  61 S7        30.05F                  
JBLM-MCCHORD   PTSUNNY   70  65  85 SW7       30.05F                  
PUYALLUP       DRIZZLE   66  64  94 CALM      30.06S                  
BREMERTON      NOT AVBL                                               
JBLM-FT LEWIS  MOSUNNY   69  66  91 W6        30.04F                  
TACOMA NARROWS PTSUNNY   67  58  72 S5        30.05S                  
$$
 
WAZ001-503-506-510-514-515-160300-
NORTH INTERIOR
  
CITY           SKY/WX    TMP DP  RH WIND       PRES   REMARKS
BELLINGHAM     MOSUNNY   68  55  63 S9        30.03S                  
FRIDAY HARBOR  MOSUNNY   58  54  86 CALM      30.04S                  
EASTSOUND      PTSUNNY   70  57  64 S9        30.01S                  
PORT ANGELES   PTSUNNY   64  57  78 W8        30.06S                  
EDIZ HOOK      CLOUDY    63  56  79 W12G20    30.05S                  
PORT TOWNSEND  FAIR      68  57  68 CALM      30.04S                  
NAS WHIDBEY    PTSUNNY   66  55  67 W9        30.08S                  
ARLINGTON      CLOUDY    72  57  59 S9        30.04S                  
BURLINGTON     PTSUNNY   73  55  53 VRB7      30.04S                  
$$
 
WAZ020-022-039-040-504-511-512-160300-
SOUTHWEST INTERIOR
  
CITY           SKY/WX    TMP DP  RH WIND       PRES   REMARKS
SHELTON        PTSUNNY   70  59  68 W5        30.02F                  
OLYMPIA        CLOUDY    69  57  65 W7        30.05S                  
CHEHALIS       LGT RAIN  64  64 100 CALM      30.06S                  
KELSO          MOSUNNY   70  62  76 W3        30.05F                  
VANCOUVER      CLOUDY    74  57  55 W5        30.03F                  
SCAPPOOSE, OR  MOSUNNY   72  62  71 N6        30.03S                  
PORTLAND, OR   PTSUNNY   76  57  51 W7        30.03F                  
$$
 
WAZ021-516-517-160300-
WASHINGTON COAST
  
CITY           SKY/WX    TMP DP  RH WIND       PRES   REMARKS
FORKS          MOSUNNY   66  58  75 NW9       30.06S                  
HOQUIAM        MOSUNNY   69  60  73 W10       30.06F                  
ASTORIA, OR    MOSUNNY   66  61  84 SW13      30.05F                  
$$
 
WAZ019-023-024-040-567>569-160300-
CASCADE MOUNTAINS AND COLUMBIA GORGE
  
CITY           SKY/WX    TMP DP  RH WIND       PRES   REMARKS
STAMPEDE PASS  CLOUDY    54  50  86 VRB5      30.12S                  
TROUTDALE, OR  CLOUDY    75  58  55 W6        30.03F                  
HOOD RIVER, OR CLEAR     73  54  49 NW13      30.02F                  
THE DALLES, OR SUNNY     77  54  44 NW18      29.98S                  
$$

WAZ026-027-041>044-520-521-160300-
EAST SLOPES
  
CITY           SKY/WX    TMP DP  RH WIND       PRES   REMARKS
OMAK           PTSUNNY   78  46  32 S14G20    29.93S                  
WENATCHEE      MOSUNNY   75  48  38 W13       29.94S                  
ELLENSBURG     LGT RAIN  70  52  52 NW18G25   30.00R                  
YAKIMA         CLOUDY    75  56  51 W9        29.96S                  
SUNNYSIDE ARPT CLEAR     80  55  43 W6        29.94S                  
YAKIMA TC      MOCLDY    76  49  38 N15       29.95S                  
$$

WAZ028-034-035-160300-
COLUMBIA BASIN
  
CITY           SKY/WX    TMP DP  RH WIND       PRES   REMARKS
EPHRATA        PTSUNNY   77  48  35 S12       29.94F                  
MOSES LAKE     MOSUNNY   77  50  38 SE9       29.95F                  
PASCO          SUNNY     83  52  34 SW12      29.93S                  
RICHLAND ARPT  PTCLDY    83  54  36 S7        29.92                   
HERMISTON, OR  MOSUNNY   82  51  34 SW12      29.94S                  
$$

WAZ036>038-160300-
NORTHEAST WASHINGTON
  
CITY           SKY/WX    TMP DP  RH WIND       PRES   REMARKS
SPOKANE GEIGER PTSUNNY   70  45  40 S5        30.00F                  
SPOKANE FELTS  CLOUDY    72  47  40 VRB3      30.00S                  
FAIRCHILD AFB  CLOUDY    70  45  40 SW5       30.01S                  
COEURDALENE,ID CLOUDY    67  53  61 E5        30.02F                  
DEER PARK      CLOUDY    69  49  48 CALM      30.01S                  
$$

WAZ029>033-160300-
SOUTHEAST WASHINGTON
  
CITY           SKY/WX    TMP DP  RH WIND       PRES   REMARKS
PULLMAN        CLOUDY    68  53  58 CALM      30.04S                  
LEWISTON, ID   LGT RAIN  71  51  49 W6        29.99R                  
WALLA WALLA    PTSUNNY   78  51  38 VRB7      29.98S                  
PENDLETON, OR  MOSUNNY   76  52  43 S7        29.98F                  
$$